Location: Barcelona
(41.3829°N, 2.1774°E)
Time: 21:38:08
(UTC+00:00)

ISS - Pass Details

Date: 07 July 2025
Orbit: 413 x 417 km, 51.6° (Epoch: 13 July)

Event Time Altitude Azimuth Distance (km) Brightness Sun altitude
Rises 21:33:10 0° 241° (WSW) 2,340 0.1 -18.0°
Reaches altitude 10° 21:35:15 10° 245° (WSW) 1,482 -0.9 -18.3°
Maximum altitude 21:38:33 62° 327° (NNW) 471 -3.3 -18.6°
Drops below altitude 10° 21:41:52 10° 49° (NE) 1,491 -0.9 -18.9°
Sets 21:44:00 0° 53° (NE) 2,358 0.1 -19.2°
